Tracking 19795 objects as of 20-Jul-2019
HD Live streaming from Space Station
objects crossing your sky now

TOMSK-TPU 120

Track TOMSK-TPU 120 now!
10-day predictions
TOMSK-TPU 120 is classified as:


NORAD ID: 42910
Int'l Code: 1998-067MZ
Perigee: 316.9 km
Apogee: 318.5 km
Inclination: 51.6 °
Period: 90.7 minutes
Semi major axis: 6688 km
RCS: Unknown
Launch date: November 20, 1998
Source: Commonwealth of Independent States (former USSR) (CIS)
Launch site: TYURATAM MISSILE AND SPACE COMPLEX (TTMTR)

Uplink (MHz):
Downlink (MHz): 437.025
Beacon (MHz): 145.800
Mode: 9600bps FSK Voice
Call sign: RS4S
Status: Inactive

aabbcc
Your satellite tracking list
Your tracking list is empty




NASA's NSSDC Master Catalog

Two Line Element Set (TLE):
1 42910U 98067MZ  19201.03619788  .00047658  00000-0  18156-3 0  9995
2 42910  51.6330 125.5873 0001197 358.8965  88.7037 15.87046545110009
Source of the keplerian elements: AMSAT